Location: Stone Trail Observatory
(44.2408°N, 105.6081°W)
Time: 05:51:03
(UTC-06:00)

Iridium 6 - Visible Passes

Search period start: 01 August 2014 00:00
Search period end: 11 August 2014 00:00
Orbit: 776 x 779 km, 86.4° (Epoch: 31 July)

Date Brightness Start Highest point End Pass type
(mag) Time Alt. Az. Time Alt. Az. Time Alt. Az.
03 Aug 8.9 05:18:31 10° E 05:20:28 12° ENE 05:22:26 10° NE visible
06 Aug 8.4 05:17:01 10° ESE 05:20:21 17° ENE 05:23:41 10° NE visible
09 Aug 8.1 05:16:09 10° SE 05:20:16 24° E 05:24:24 10° NNE visible
10 Aug 8.5 04:44:32 10° ESE 04:47:05 14° ENE 04:49:38 10° NE visible
